Location: Niverville
(49.6028°N, 97.0419°W)
Time: 13:50:11
(UTC-05:00)

Cosmos 1154 Rocket - Visible Passes

Search period start: 02 September 2014 00:00
Search period end: 12 September 2014 00:00
Orbit: 292 x 302 km, 81.2° (Epoch: 02 September)

Date Brightness Start Highest point End Pass type
(mag) Time Alt. Az. Time Alt. Az. Time Alt. Az.
02 Sep 5.2 23:05:06 10° N 23:05:06 10° N 23:05:06 10° N visible
03 Sep 5.4 23:12:49 10° NNW 23:12:49 10° NNW 23:12:51 10° NNW visible
05 Sep 4.3 21:56:53 12° NNE 21:56:53 12° NNE 21:57:09 10° NNE visible
06 Sep 3.9 22:03:38 19° NNE 22:03:38 19° NNE 22:04:28 10° NNE visible
07 Sep 3.6 22:10:01 27° N 22:10:01 27° N 22:11:23 10° N visible
08 Sep 3.8 22:16:00 27° NW 22:16:00 27° NW 22:17:53 10° N visible
09 Sep 3.4 20:51:11 15° E 20:51:11 15° E 20:52:34 10° NE visible
09 Sep 4.5 22:21:31 17° W 22:22:06 18° WNW 22:23:55 10° NNW visible
10 Sep 2.7 20:56:08 19° SE 20:57:03 24° E 20:59:10 10° NE visible
10 Sep 5.1 22:27:23 10° W 22:28:20 12° WNW 22:29:17 10° NW visible
11 Sep 1.8 21:00:29 10° S 21:02:51 42° E 21:05:14 10° NNE visible
